| time (UTC) | temp F | wind direction | speed knots | gust knots | rain 1hr in | rain 24hr in | rain mn in | humidity % | barometer mb |
| 20260510120208 | 59 | 54 | 0.9 | 2.6 | 0.00 | 0.00 | 0.00 | 83 | 1015.5 |
| 20260510115704 | 58 | 63 | 0.9 | 2.6 | 0.00 | 0.00 | 0.00 | 85 | 1015.5 |
| 20260510115203 | 58 | 139 | 1.7 | 3.5 | 0.00 | 0.00 | 0.00 | 85 | 1015.2 |
| 20260510114657 | 57 | 65 | 0.9 | 2.6 | 0.00 | 0.00 | 0.00 | 86 | 1015.4 |
| 20260510114154 | 57 | 68 | 1.7 | 1.7 | 0.00 | 0.00 | 0.00 | 87 | 1015.5 |
| 20260510113643 | 57 | 184 | 0.0 | 1.7 | 0.00 | 0.00 | 0.00 | 86 | 1015.3 |
| 20260510113141 | 57 | 91 | 0.0 | 1.7 | 0.00 | 0.00 | 0.00 | 85 | 1015.0 |
| 20260510112637 | 57 | 104 | 0.9 | 0.9 | 0.00 | 0.00 | 0.00 | 84 | 1014.8 |
| 20260510112134 | 57 | 129 | 0.0 | 0.0 | 0.00 | 0.00 | 0.00 | 84 | 1014.8 |
| 20260510111630 | 57 | 135 | 0.0 | 0.0 | 0.00 | 0.00 | 0.00 | 83 | 1014.7 |
| 20260510111126 | 57 | 116 | 0.0 | 1.7 | 0.00 | 0.00 | 0.00 | 83 | 1014.8 |
| 20260510110622 | 58 | 139 | 0.0 | 1.7 | 0.00 | 0.00 | 0.00 | 83 | 1014.5 |
| 20260510110120 | 57 | 21 | 1.7 | 3.5 | 0.00 | 0.00 | 0.00 | 83 | 1014.4 |
| 20260510105615 | 57 | 83 | 0.9 | 3.5 | 0.00 | 0.00 | 0.00 | 84 | 1014.4 |
| 20260510105109 | 57 | 40 | 0.9 | 1.7 | 0.00 | 0.00 | 0.00 | 84 | 1014.6 |
| 20260510104607 | 57 | 148 | 0.0 | 1.7 | 0.00 | 0.00 | 0.00 | 85 | 1014.3 |
| 20260510104103 | 57 | 38 | 1.7 | 2.6 | 0.00 | 0.00 | 0.00 | 87 | 1014.3 |
| 20260510103600 | 57 | 157 | 0.9 | 2.6 | 0.00 | 0.00 | 0.00 | 86 | 1014.5 |
| 20260510103056 | 56 | 153 | 0.9 | 1.7 | 0.00 | 0.00 | 0.00 | 88 | 1014.6 |
| 20260510102551 | 56 | 143 | 0.0 | 0.0 | 0.00 | 0.00 | 0.00 | 87 | 1014.4 |
| 20260510102048 | 57 | 156 | 0.0 | 0.0 | 0.00 | 0.00 | 0.00 | 86 | 1014.3 |
| 20260510101546 | 57 | 156 | 0.0 | 0.0 | 0.00 | 0.00 | 0.00 | 85 | 1014.4 |
| 20260510101044 | 57 | 154 | 0.0 | 0.0 | 0.00 | 0.00 | 0.00 | 85 | 1014.2 |
| 20260510100540 | 57 | 165 | 0.0 | 0.0 | 0.00 | 0.00 | 0.00 | 85 | 1014.2 |
| 20260510100037 | 57 | 166 | 0.0 | 0.0 | 0.00 | 0.00 | 0.00 | 85 | 1013.9 |
| 20260510095533 | 57 | 168 | 0.0 | 0.0 | 0.00 | 0.00 | 0.00 | 84 | 1014.0 |
| 20260510095032 | 57 | 164 | 0.0 | 0.0 | 0.00 | 0.00 | 0.00 | 84 | 1013.9 |
| 20260510094527 | 57 | 164 | 0.0 | 0.0 | 0.00 | 0.00 | 0.00 | 84 | 1013.9 |
| 20260510094023 | 58 | 168 | 0.0 | 0.0 | 0.00 | 0.00 | 0.00 | 84 | 1013.8 |
| 20260510093519 | 57 | 164 | 0.0 | 0.0 | 0.00 | 0.00 | 0.00 | 85 | 1013.9 |
| 20260510093016 | 57 | 161 | 0.0 | 0.0 | 0.00 | 0.00 | 0.00 | 84 | 1013.9 |
| 20260510092513 | 57 | 161 | 0.0 | 0.0 | 0.00 | 0.00 | 0.00 | 84 | 1013.6 |
| 20260510092012 | 57 | 164 | 0.0 | 0.0 | 0.00 | 0.00 | 0.00 | 83 | 1013.5 |
| 20260510091509 | 58 | 164 | 0.0 | 0.0 | 0.00 | 0.00 | 0.00 | 83 | 1013.4 |
| 20260510091005 | 59 | 163 | 0.0 | 0.0 | 0.00 | 0.00 | 0.00 | 82 | 1013.7 |
| 20260510090503 | 59 | 169 | 0.0 | 0.0 | 0.00 | 0.00 | 0.00 | 80 | 1013.5 |
| 20260510085958 | 59 | 159 | 0.0 | 0.0 | 0.00 | 0.00 | 0.00 | 79 | 1013.4 |
| 20260510085453 | 59 | 166 | 0.0 | 0.0 | 0.00 | 0.00 | 0.00 | 79 | 1013.2 |
| 20260510084949 | 59 | 163 | 0.0 | 0.0 | 0.00 | 0.00 | 0.00 | 79 | 1013.6 |
| 20260510084446 | 60 | 177 | 0.0 | 0.0 | 0.00 | 0.00 | 0.00 | 79 | 1013.5 |
| 20260510083943 | 60 | 193 | 0.0 | 0.0 | 0.00 | 0.00 | 0.00 | 78 | 1013.4 |
| 20260510083439 | 60 | 171 | 0.0 | 0.0 | 0.00 | 0.00 | 0.00 | 77 | 1013.4 |
| 20260510082935 | 60 | 161 | 0.0 | 0.0 | 0.00 | 0.00 | 0.00 | 76 | 1013.2 |
| 20260510082433 | 60 | 165 | 0.0 | 0.0 | 0.00 | 0.00 | 0.00 | 76 | 1013.0 |
| 20260510081932 | 60 | 166 | 0.0 | 0.0 | 0.00 | 0.00 | 0.00 | 77 | 1013.1 |
| 20260510081428 | 60 | 159 | 0.0 | 0.0 | 0.00 | 0.00 | 0.00 | 77 | 1013.0 |
| 20260510080924 | 60 | 158 | 0.0 | 0.0 | 0.00 | 0.00 | 0.00 | 78 | 1012.8 |
| 20260510080423 | 60 | 156 | 0.0 | 0.0 | 0.00 | 0.00 | 0.00 | 77 | 1013.1 |
| 20260510075920 | 60 | 154 | 0.0 | 0.0 | 0.00 | 0.00 | 0.00 | 77 | 1013.4 |
| 20260510075418 | 60 | 159 | 0.0 | 0.0 | 0.00 | 0.00 | 0.00 | 77 | 1013.4 |
| 20260510074915 | 60 | 159 | 0.0 | 0.0 | 0.00 | 0.00 | 0.00 | 77 | 1013.5 |
| 20260510074412 | 60 | 164 | 0.0 | 0.0 | 0.00 | 0.00 | 0.00 | 77 | 1013.2 |
| 20260510073908 | 60 | 154 | 0.0 | 0.0 | 0.00 | 0.00 | 0.00 | 77 | 1013.2 |
| 20260510073404 | 60 | 148 | 0.0 | 0.0 | 0.00 | 0.00 | 0.00 | 77 | 1013.2 |
| 20260510072900 | 60 | 159 | 0.0 | 0.0 | 0.00 | 0.00 | 0.00 | 76 | 1013.2 |
| 20260510072357 | 60 | 157 | 0.0 | 0.0 | 0.00 | 0.00 | 0.00 | 76 | 1013.2 |
| 20260510071853 | 60 | 166 | 0.0 | 0.0 | 0.00 | 0.00 | 0.00 | 75 | 1013.1 |
| 20260510071349 | 60 | 167 | 0.0 | 0.0 | 0.00 | 0.00 | 0.00 | 75 | 1013.0 |
| 20260510070848 | 60 | 164 | 0.0 | 0.0 | 0.00 | 0.00 | 0.00 | 75 | 1013.0 |
| 20260510070345 | 61 | 167 | 0.0 | 0.0 | 0.00 | 0.00 | 0.00 | 74 | 1013.1 |
| 20260510065844 | 61 | 167 | 0.0 | 0.0 | 0.00 | 0.00 | 0.00 | 73 | 1013.0 |
| 20260510065342 | 61 | 165 | 0.0 | 0.0 | 0.00 | 0.00 | 0.00 | 72 | 1013.0 |
| 20260510064838 | 61 | 162 | 0.0 | 0.0 | 0.00 | 0.00 | 0.00 | 73 | 1012.8 |
| 20260510064336 | 61 | 162 | 0.0 | 0.0 | 0.00 | 0.00 | 0.00 | 71 | 1013.1 |
| 20260510063832 | 61 | 161 | 0.0 | 0.0 | 0.00 | 0.00 | 0.00 | 71 | 1012.9 |
| 20260510063329 | 62 | 161 | 0.0 | 0.0 | 0.00 | 0.00 | 0.00 | 71 | 1013.0 |
| 20260510062826 | 62 | 156 | 0.0 | 0.0 | 0.00 | 0.00 | 0.00 | 70 | 1013.0 |
| 20260510062321 | 63 | 160 | 0.0 | 0.0 | 0.00 | 0.00 | 0.00 | 69 | 1013.2 |
| 20260510061816 | 63 | 123 | 0.0 | 0.9 | 0.00 | 0.00 | 0.00 | 69 | 1013.2 |
| 20260510061314 | 63 | 169 | 0.9 | 1.7 | 0.00 | 0.00 | 0.00 | 68 | 1013.4 |
| 20260510060810 | 63 | 303 | 2.6 | 3.5 | 0.00 | 0.00 | 0.00 | 68 | 1013.1 |
| 20260510060307 | 64 | 32 | 1.7 | 3.5 | 0.00 | 0.00 | 0.00 | 68 | 1013.2 |
| 20260510055804 | 66 | 160 | 0.9 | 0.9 | 0.00 | 0.00 | 0.00 | 63 | 1012.9 |
| 20260510055306 | 65 | 205 | 0.0 | 0.0 | 0.00 | 0.00 | 0.00 | 63 | 1012.9 |
| 20260510054801 | 65 | 168 | 0.0 | 0.9 | 0.00 | 0.00 | 0.00 | 63 | 1012.9 |
| 20260510054257 | 66 | 161 | 0.0 | 0.9 | 0.00 | 0.00 | 0.00 | 63 | 1012.6 |
| 20260510053752 | 66 | 174 | 0.0 | 0.9 | 0.00 | 0.00 | 0.00 | 62 | 1013.0 |
| 20260510053248 | 66 | 163 | 0.0 | 0.9 | 0.00 | 0.00 | 0.00 | 61 | 1012.7 |
| 20260510052743 | 66 | 160 | 0.0 | 0.9 | 0.00 | 0.00 | 0.00 | 61 | 1012.6 |
| 20260510052240 | 67 | 172 | 0.0 | 1.7 | 0.00 | 0.00 | 0.00 | 60 | 1012.8 |
| 20260510051736 | 67 | 160 | 0.0 | 0.9 | 0.00 | 0.00 | 0.00 | 60 | 1012.8 |
| 20260510051232 | 67 | 162 | 0.0 | 1.7 | 0.00 | 0.00 | 0.00 | 60 | 1012.7 |
| 20260510050724 | 66 | 169 | 0.0 | 0.0 | 0.00 | 0.00 | 0.00 | 61 | 1012.7 |
| 20260510050222 | 66 | 149 | 0.0 | 0.0 | 0.00 | 0.00 | 0.00 | 63 | 1012.8 |
| 20260510045718 | 65 | 166 | 0.0 | 0.0 | 0.00 | 0.01 | 0.01 | 64 | 1012.5 |
| 20260510045215 | 65 | 162 | 0.0 | 0.0 | 0.00 | 0.01 | 0.01 | 65 | 1012.5 |
| 20260510044711 | 65 | 163 | 0.0 | 0.0 | 0.00 | 0.01 | 0.01 | 63 | 1012.3 |
| 20260510044209 | 66 | 163 | 0.0 | 0.0 | 0.00 | 0.01 | 0.01 | 63 | 1012.5 |
| 20260510043704 | 66 | 163 | 0.0 | 0.0 | 0.00 | 0.01 | 0.01 | 63 | 1012.4 |
| 20260510043201 | 66 | 164 | 0.0 | 0.0 | 0.00 | 0.01 | 0.01 | 62 | 1012.5 |
| 20260510042658 | 66 | 163 | 0.0 | 0.0 | 0.00 | 0.01 | 0.01 | 62 | 1012.5 |
| 20260510042154 | 66 | 162 | 0.0 | 0.0 | 0.00 | 0.01 | 0.01 | 62 | 1012.6 |
| 20260510041652 | 66 | 159 | 0.0 | 0.0 | 0.00 | 0.01 | 0.01 | 62 | 1012.6 |
| 20260510041149 | 66 | 166 | 0.0 | 0.0 | 0.00 | 0.01 | 0.01 | 62 | 1012.5 |
| 20260510040646 | 66 | 160 | 0.0 | 0.0 | 0.00 | 0.01 | 0.01 | 61 | 1012.5 |
| 20260510040143 | 65 | 156 | 0.0 | 0.0 | 0.00 | 0.01 | 0.01 | 63 | 1012.4 |
| 20260510035638 | 65 | 168 | 0.0 | 0.0 | 0.00 | 0.01 | 0.01 | 63 | 1012.2 |
| 20260510035133 | 65 | 167 | 0.0 | 0.0 | 0.00 | 0.01 | 0.01 | 63 | 1012.0 |
| 20260510034630 | 65 | 165 | 0.0 | 0.0 | 0.00 | 0.01 | 0.01 | 62 | 1012.0 |
| 20260510034127 | 65 | 165 | 0.0 | 0.0 | 0.00 | 0.01 | 0.01 | 61 | 1012.2 |
| 20260510033624 | 65 | 163 | 0.0 | 0.0 | 0.00 | 0.01 | 0.01 | 61 | 1012.1 |
| 20260510033122 | 66 | 163 | 0.0 | 0.0 | 0.00 | 0.01 | 0.01 | 60 | 1012.0 |
| 20260510032618 | 66 | 162 | 0.0 | 0.0 | 0.00 | 0.01 | 0.01 | 59 | 1012.0 |
| 20260510032113 | 66 | 160 | 0.0 | 0.0 | 0.00 | 0.01 | 0.01 | 60 | 1012.0 |
| 20260510031608 | 66 | 160 | 0.0 | 0.0 | 0.00 | 0.01 | 0.01 | 60 | 1012.1 |
| 20260510031105 | 65 | 165 | 0.0 | 0.0 | 0.00 | 0.01 | 0.01 | 61 | 1012.0 |
| 20260510030600 | 65 | 163 | 0.0 | 0.0 | 0.00 | 0.01 | 0.01 | 62 | 1012.0 |
| 20260510030057 | 66 | 163 | 0.0 | 0.0 | 0.00 | 0.01 | 0.01 | 61 | 1012.0 |
| 20260510025554 | 66 | 163 | 0.0 | 0.0 | 0.00 | 0.01 | 0.01 | 60 | 1012.0 |
| 20260510025052 | 66 | 161 | 0.0 | 0.0 | 0.00 | 0.01 | 0.01 | 60 | 1012.0 |
| 20260510024543 | 66 | 164 | 0.0 | 0.0 | 0.00 | 0.01 | 0.01 | 60 | 1011.9 |
| 20260510024038 | 66 | 164 | 0.0 | 0.0 | 0.00 | 0.01 | 0.01 | 57 | 1011.6 |
| 20260510023535 | 67 | 164 | 0.0 | 0.0 | 0.00 | 0.01 | 0.01 | 56 | 1011.6 |
| 20260510023032 | 67 | 165 | 0.0 | 0.0 | 0.00 | 0.01 | 0.01 | 57 | 1011.4 |
| 20260510022531 | 67 | 168 | 0.0 | 0.0 | 0.00 | 0.01 | 0.01 | 58 | 1011.2 |
| 20260510022025 | 67 | 168 | 0.0 | 0.0 | 0.00 | 0.01 | 0.01 | 58 | 1011.2 |
| 20260510021522 | 67 | 167 | 0.0 | 0.0 | 0.00 | 0.01 | 0.01 | 58 | 1011.0 |
| 20260510021020 | 68 | 168 | 0.0 | 0.0 | 0.00 | 0.01 | 0.01 | 57 | 1010.9 |
| 20260510020515 | 68 | 166 | 0.0 | 0.0 | 0.00 | 0.01 | 0.01 | 56 | 1010.9 |
| 20260510020010 | 68 | 162 | 0.0 | 0.0 | 0.00 | 0.01 | 0.01 | 55 | 1010.9 |
| 20260510015506 | 69 | 162 | 0.0 | 0.0 | 0.00 | 0.01 | 0.01 | 54 | 1010.6 |
| 20260510015001 | 69 | 162 | 0.0 | 0.0 | 0.00 | 0.01 | 0.01 | 54 | 1010.5 |
| 20260510014454 | 69 | 161 | 0.0 | 0.0 | 0.00 | 0.01 | 0.01 | 53 | 1010.4 |
| 20260510013950 | 70 | 160 | 0.0 | 0.0 | 0.00 | 0.01 | 0.01 | 52 | 1010.2 |
| 20260510013445 | 70 | 159 | 0.0 | 0.0 | 0.00 | 0.01 | 0.01 | 51 | 1010.2 |
| 20260510012941 | 70 | 159 | 0.0 | 0.0 | 0.00 | 0.01 | 0.01 | 50 | 1010.2 |
| 20260510012436 | 71 | 158 | 0.0 | 0.0 | 0.00 | 0.01 | 0.01 | 50 | 1010.2 |
| 20260510011931 | 72 | 164 | 0.0 | 0.0 | 0.00 | 0.01 | 0.01 | 48 | 1010.1 |
| 20260510011425 | 73 | 166 | 0.0 | 0.0 | 0.00 | 0.01 | 0.01 | 47 | 1010.0 |
| 20260510010921 | 74 | 165 | 0.0 | 0.0 | 0.00 | 0.01 | 0.01 | 46 | 1010.0 |
| 20260510010419 | 74 | 162 | 0.0 | 0.0 | 0.00 | 0.01 | 0.01 | 44 | 1010.1 |
| 20260510005915 | 74 | 173 | 0.0 | 0.0 | 0.00 | 0.01 | 0.01 | 43 | 1010.0 |
| 20260510005412 | 75 | 166 | 0.0 | 0.0 | 0.00 | 0.01 | 0.01 | 43 | 1009.9 |
| 20260510004909 | 76 | 169 | 0.0 | 0.0 | 0.00 | 0.01 | 0.01 | 42 | 1009.8 |
| 20260510004407 | 76 | 169 | 0.0 | 0.0 | 0.00 | 0.01 | 0.01 | 40 | 1009.6 |
| 20260510003904 | 77 | 174 | 0.0 | 0.0 | 0.00 | 0.01 | 0.01 | 40 | 1009.9 |
| 20260510003401 | 78 | 169 | 0.0 | 0.9 | 0.00 | 0.01 | 0.01 | 37 | 1009.7 |
| 20260510002900 | 79 | 175 | 0.9 | 1.7 | 0.00 | 0.01 | 0.01 | 36 | 1009.6 |
| 20260510002358 | 79 | 167 | 0.0 | 0.9 | 0.00 | 0.01 | 0.01 | 36 | 1009.7 |
| 20260510001854 | 79 | 162 | 0.9 | 1.7 | 0.00 | 0.01 | 0.01 | 36 | 1009.5 |
| 20260510001352 | 79 | 179 | 0.9 | 0.9 | 0.00 | 0.01 | 0.01 | 37 | 1009.8 |
| 20260510000849 | 79 | 209 | 1.7 | 1.7 | 0.00 | 0.01 | 0.01 | 36 | 1009.8 |
| 20260510000345 | 80 | 194 | 0.9 | 1.7 | 0.00 | 0.01 | 0.01 | 36 | 1009.7 |
| 20260509235842 | 80 | 176 | 0.9 | 0.9 | 0.00 | 0.01 | 0.01 | 35 | 1009.8 |
| 20260509235339 | 80 | 170 | 0.0 | 0.9 | 0.00 | 0.01 | 0.01 | 36 | 1009.7 |
| 20260509234834 | 80 | 233 | 2.6 | 2.6 | 0.00 | 0.01 | 0.01 | 35 | 1009.7 |
| 20260509234331 | 80 | 191 | 1.7 | 5.2 | 0.00 | 0.01 | 0.01 | 34 | 1009.7 |
| 20260509233829 | 81 | 179 | 0.9 | 1.7 | 0.00 | 0.01 | 0.01 | 35 | 1009.7 |
| 20260509233327 | 82 | 203 | 2.6 | 2.6 | 0.00 | 0.01 | 0.01 | 34 | 1009.6 |
| 20260509232822 | 81 | 148 | 0.9 | 1.7 | 0.00 | 0.01 | 0.01 | 33 | 1009.7 |
| 20260509232320 | 82 | 207 | 0.0 | 0.9 | 0.00 | 0.01 | 0.01 | 34 | 1009.7 |
| 20260509231816 | 82 | 209 | 0.0 | 1.7 | 0.00 | 0.01 | 0.01 | 31 | 1009.7 |
| 20260509231313 | 82 | 177 | 0.0 | 2.6 | 0.00 | 0.01 | 0.01 | 33 | 1009.9 |
| 20260509230811 | 82 | 20 | 1.7 | 1.7 | 0.00 | 0.01 | 0.01 | 32 | 1009.9 |
| 20260509230308 | 82 | 126 | 0.9 | 3.5 | 0.00 | 0.01 | 0.01 | 32 | 1009.7 |
| 20260509225803 | 82 | 184 | 0.9 | 2.6 | 0.00 | 0.01 | 0.01 | 35 | 1009.6 |
| 20260509225300 | 82 | 210 | 1.7 | 3.5 | 0.00 | 0.01 | 0.01 | 32 | 1009.8 |
| 20260509224756 | 82 | 178 | 0.0 | 2.6 | 0.00 | 0.01 | 0.01 | 32 | 1009.7 |
| 20260509224253 | 83 | 187 | 2.6 | 3.5 | 0.00 | 0.01 | 0.01 | 32 | 1009.7 |
| 20260509223750 | 83 | 187 | 1.7 | 2.6 | 0.00 | 0.01 | 0.01 | 32 | 1009.6 |
| 20260509223247 | 83 | 176 | 0.9 | 2.6 | 0.00 | 0.01 | 0.01 | 30 | 1009.8 |
| 20260509222743 | 84 | 187 | 0.0 | 2.6 | 0.00 | 0.01 | 0.01 | 30 | 1009.7 |
| 20260509222239 | 83 | 184 | 0.0 | 1.7 | 0.00 | 0.01 | 0.01 | 33 | 1009.7 |
| 20260509221734 | 83 | 176 | 0.9 | 3.5 | 0.00 | 0.01 | 0.01 | 33 | 1009.7 |
| 20260509221231 | 82 | 230 | 0.9 | 3.5 | 0.00 | 0.01 | 0.01 | 31 | 1009.8 |
| 20260509220727 | 82 | 207 | 2.6 | 3.5 | 0.00 | 0.01 | 0.01 | 33 | 1009.8 |
| 20260509220224 | 82 | 190 | 1.7 | 3.5 | 0.00 | 0.01 | 0.01 | 31 | 1009.8 |
| 20260509215719 | 82 | 152 | 1.7 | 6.1 | 0.00 | 0.01 | 0.01 | 33 | 1009.7 |
| 20260509215216 | 82 | 219 | 3.5 | 3.5 | 0.00 | 0.01 | 0.01 | 34 | 1009.9 |
| 20260509214713 | 82 | 246 | 1.7 | 3.5 | 0.00 | 0.01 | 0.01 | 34 | 1009.7 |
| 20260509214210 | 83 | 218 | 2.6 | 3.5 | 0.00 | 0.01 | 0.01 | 33 | 1009.8 |
| 20260509213707 | 83 | 195 | 2.6 | 5.2 | 0.00 | 0.01 | 0.01 | 35 | 1009.9 |
| 20260509213202 | 82 | 176 | 0.0 | 0.9 | 0.00 | 0.01 | 0.01 | 35 | 1009.8 |
| 20260509212701 | 82 | 153 | 0.0 | 0.9 | 0.00 | 0.01 | 0.01 | 35 | 1009.9 |
| 20260509212157 | 82 | 170 | 1.7 | 3.5 | 0.00 | 0.01 | 0.01 | 35 | 1009.9 |
| 20260509211653 | 82 | 249 | 0.9 | 5.2 | 0.00 | 0.01 | 0.01 | 35 | 1009.8 |
| 20260509211150 | 82 | 188 | 1.7 | 3.5 | 0.00 | 0.01 | 0.01 | 34 | 1009.9 |
| 20260509210646 | 83 | 159 | 0.9 | 3.5 | 0.00 | 0.01 | 0.01 | 34 | 1009.8 |
| 20260509210143 | 82 | 222 | 2.6 | 3.5 | 0.00 | 0.01 | 0.01 | 32 | 1009.9 |
| 20260509205638 | 83 | 239 | 0.9 | 3.5 | 0.00 | 0.01 | 0.01 | 36 | 1010.1 |
| 20260509205133 | 83 | 149 | 1.7 | 5.2 | 0.00 | 0.01 | 0.01 | 35 | 1010.0 |
| 20260509204630 | 83 | 177 | 0.9 | 5.2 | 0.00 | 0.01 | 0.01 | 36 | 1010.1 |
| 20260509204126 | 83 | 290 | 2.6 | 2.6 | 0.00 | 0.01 | 0.01 | 33 | 1010.1 |
| 20260509203622 | 83 | 251 | 1.7 | 5.2 | 0.00 | 0.01 | 0.01 | 33 | 1010.0 |
| 20260509203121 | 82 | 217 | 1.7 | 3.5 | 0.00 | 0.01 | 0.01 | 31 | 1009.9 |
| 20260509202620 | 82 | 150 | 0.9 | 3.5 | 0.00 | 0.01 | 0.01 | 38 | 1010.1 |
| 20260509202115 | 82 | 208 | 3.5 | 5.2 | 0.00 | 0.01 | 0.01 | 33 | 1010.0 |
| 20260509201610 | 83 | 150 | 0.0 | 3.5 | 0.00 | 0.01 | 0.01 | 35 | 1010.0 |
| 20260509201109 | 83 | 174 | 0.0 | 2.6 | 0.00 | 0.01 | 0.01 | 37 | 1010.3 |
| 20260509200608 | 82 | 163 | 0.9 | 2.6 | 0.00 | 0.01 | 0.01 | 37 | 1010.3 |
| 20260509200059 | 82 | 203 | 0.9 | 6.1 | 0.00 | 0.01 | 0.01 | 35 | 1010.3 |
| 20260509195555 | 82 | 193 | 1.7 | 7.0 | 0.00 | 0.01 | 0.01 | 34 | 1010.4 |
| 20260509195049 | 82 | 163 | 0.0 | 1.7 | 0.00 | 0.01 | 0.01 | 41 | 1010.4 |
| 20260509194544 | 81 | 135 | 0.9 | 3.5 | 0.00 | 0.01 | 0.01 | 35 | 1010.8 |
| 20260509194042 | 82 | 208 | 1.7 | 3.5 | 0.00 | 0.01 | 0.01 | 33 | 1010.8 |
| 20260509193537 | 82 | 162 | 1.7 | 2.6 | 0.00 | 0.01 | 0.01 | 36 | 1010.5 |
| 20260509193033 | 82 | 294 | 3.5 | 7.0 | 0.00 | 0.01 | 0.01 | 35 | 1010.6 |
| 20260509192530 | 82 | 224 | 2.6 | 7.0 | 0.00 | 0.01 | 0.01 | 36 | 1010.6 |
| 20260509192025 | 82 | 207 | 2.6 | 6.1 | 0.00 | 0.01 | 0.01 | 38 | 1010.6 |
| 20260509191520 | 82 | 164 | 1.7 | 5.2 | 0.00 | 0.01 | 0.01 | 41 | 1010.4 |
| 20260509191016 | 81 | 68 | 1.7 | 6.1 | 0.00 | 0.01 | 0.01 | 35 | 1010.6 |
| 20260509190513 | 80 | 202 | 0.9 | 2.6 | 0.00 | 0.01 | 0.01 | 38 | 1010.6 |
| 20260509190011 | 81 | 167 | 0.9 | 7.0 | 0.00 | 0.01 | 0.01 | 38 | 1010.6 |
| 20260509185508 | 81 | 326 | 2.6 | 3.5 | 0.00 | 0.01 | 0.01 | 36 | 1010.6 |
| 20260509185004 | 81 | 185 | 1.7 | 3.5 | 0.00 | 0.01 | 0.01 | 38 | 1010.8 |
| 20260509184503 | 82 | 52 | 7.8 | 8.7 | 0.00 | 0.01 | 0.01 | 34 | 1010.6 |
| 20260509183958 | 82 | 322 | 0.9 | 3.5 | 0.00 | 0.01 | 0.01 | 37 | 1010.8 |
| 20260509183453 | 81 | 152 | 0.0 | 6.1 | 0.00 | 0.01 | 0.01 | 35 | 1010.6 |
| 20260509182950 | 81 | 207 | 0.0 | 1.7 | 0.00 | 0.01 | 0.01 | 39 | 1010.6 |
| 20260509182446 | 81 | 298 | 1.7 | 5.2 | 0.00 | 0.01 | 0.01 | 38 | 1010.8 |
| 20260509181944 | 81 | 89 | 2.6 | 5.2 | 0.00 | 0.01 | 0.01 | 34 | 1010.8 |
| 20260509181441 | 81 | 16 | 0.9 | 6.1 | 0.00 | 0.01 | 0.01 | 39 | 1010.8 |
| 20260509180939 | 81 | 211 | 2.6 | 5.2 | 0.00 | 0.01 | 0.01 | 37 | 1010.5 |
| 20260509180434 | 81 | 168 | 3.5 | 5.2 | 0.00 | 0.01 | 0.01 | 37 | 1010.4 |
| 20260509175931 | 80 | 223 | 0.9 | 1.7 | 0.00 | 0.01 | 0.01 | 39 | 1010.6 |
| 20260509175427 | 80 | 211 | 2.6 | 5.2 | 0.00 | 0.01 | 0.01 | 36 | 1011.0 |
| 20260509174924 | 80 | 171 | 0.9 | 3.5 | 0.00 | 0.01 | 0.01 | 42 | 1010.5 |
| 20260509174420 | 80 | 86 | 2.6 | 3.5 | 0.00 | 0.01 | 0.01 | 38 | 1010.9 |
| 20260509173915 | 79 | 98 | 1.7 | 5.2 | 0.00 | 0.01 | 0.01 | 36 | 1011.0 |
| 20260509173409 | 80 | 297 | 3.5 | 6.1 | 0.00 | 0.01 | 0.01 | 39 | 1010.9 |
| 20260509172907 | 79 | 123 | 0.9 | 3.5 | 0.00 | 0.01 | 0.01 | 44 | 1011.0 |
| 20260509172403 | 79 | 117 | 1.7 | 7.0 | 0.00 | 0.01 | 0.01 | 41 | 1010.9 |
| 20260509171859 | 80 | 114 | 3.5 | 3.5 | 0.00 | 0.01 | 0.01 | 41 | 1011.1 |
| 20260509171355 | 79 | 180 | 0.0 | 2.6 | 0.00 | 0.01 | 0.01 | 44 | 1011.0 |
| 20260509170852 | 78 | 5 | 1.7 | 5.2 | 0.00 | 0.01 | 0.01 | 45 | 1011.1 |
| 20260509170347 | 79 | 165 | 3.5 | 7.0 | 0.00 | 0.01 | 0.01 | 41 | 1010.9 |
| 20260509165842 | 79 | 242 | 0.0 | 5.2 | 0.00 | 0.01 | 0.01 | 47 | 1011.0 |
| 20260509165337 | 79 | 158 | 0.0 | 2.6 | 0.00 | 0.01 | 0.01 | 48 | 1011.0 |
| 20260509164833 | 78 | 283 | 1.7 | 3.5 | 0.00 | 0.01 | 0.01 | 47 | 1011.0 |
| 20260509164330 | 77 | 180 | 3.5 | 5.2 | 0.00 | 0.01 | 0.01 | 47 | 1011.1 |
| 20260509163826 | 78 | 307 | 3.5 | 5.2 | 0.00 | 0.01 | 0.01 | 46 | 1011.0 |
| 20260509163322 | 78 | 153 | 1.7 | 3.5 | 0.00 | 0.01 | 0.01 | 46 | 1010.9 |
| 20260509162821 | 78 | 335 | 3.5 | 5.2 | 0.00 | 0.01 | 0.01 | 45 | 1010.9 |
| 20260509162314 | 77 | 202 | 2.6 | 6.1 | 0.00 | 0.01 | 0.01 | 47 | 1011.0 |
| 20260509161810 | 77 | 233 | 1.7 | 5.2 | 0.00 | 0.01 | 0.01 | 46 | 1011.0 |
| 20260509161307 | 77 | 324 | 0.9 | 3.5 | 0.00 | 0.01 | 0.01 | 49 | 1011.1 |
| 20260509160802 | 77 | 129 | 2.6 | 3.5 | 0.00 | 0.01 | 0.01 | 50 | 1010.9 |
| 20260509160259 | 77 | 199 | 1.7 | 5.2 | 0.00 | 0.01 | 0.01 | 50 | 1010.9 |
| 20260509155754 | 77 | 36 | 2.6 | 2.6 | 0.00 | 0.01 | 0.01 | 51 | 1010.9 |
| 20260509155251 | 77 | 161 | 1.7 | 2.6 | 0.00 | 0.01 | 0.01 | 52 | 1010.9 |
| 20260509154747 | 77 | 172 | 2.6 | 3.5 | 0.00 | 0.01 | 0.01 | 53 | 1010.9 |
| 20260509154244 | 76 | 231 | 2.6 | 3.5 | 0.00 | 0.01 | 0.01 | 53 | 1010.9 |
| 20260509153741 | 75 | 179 | 0.9 | 3.5 | 0.00 | 0.01 | 0.01 | 53 | 1010.8 |
| 20260509153237 | 76 | 190 | 0.9 | 1.7 | 0.00 | 0.01 | 0.01 | 56 | 1010.8 |
| 20260509152734 | 75 | 122 | 2.6 | 2.6 | 0.00 | 0.01 | 0.01 | 57 | 1010.9 |
| 20260509152230 | 75 | 210 | 2.6 | 2.6 | 0.00 | 0.01 | 0.01 | 61 | 1010.8 |
| 20260509151727 | 74 | 326 | 1.7 | 2.6 | 0.00 | 0.01 | 0.01 | 62 | 1010.9 |
| 20260509151224 | 74 | 194 | 0.9 | 2.6 | 0.00 | 0.01 | 0.01 | 59 | 1010.8 |
| 20260509150721 | 73 | 176 | 0.9 | 2.6 | 0.00 | 0.01 | 0.01 | 64 | 1010.8 |
| 20260509150220 | 73 | 173 | 1.7 | 3.5 | 0.00 | 0.01 | 0.01 | 65 | 1010.6 |
| 20260509145716 | 73 | 192 | 1.7 | 3.5 | 0.00 | 0.01 | 0.01 | 63 | 1010.5 |
| 20260509145211 | 72 | 130 | 0.0 | 2.6 | 0.00 | 0.01 | 0.01 | 66 | 1010.8 |
| 20260509144708 | 72 | 208 | 1.7 | 2.6 | 0.00 | 0.01 | 0.01 | 67 | 1010.6 |
| 20260509144205 | 71 | 194 | 2.6 | 3.5 | 0.00 | 0.01 | 0.01 | 66 | 1010.6 |
| 20260509143702 | 71 | 193 | 0.9 | 3.5 | 0.00 | 0.01 | 0.01 | 67 | 1010.5 |
| 20260509143159 | 71 | 133 | 0.9 | 2.6 | 0.00 | 0.01 | 0.01 | 68 | 1010.8 |
| 20260509142655 | 70 | 165 | 1.7 | 5.2 | 0.00 | 0.01 | 0.01 | 68 | 1010.5 |
| 20260509142152 | 70 | 287 | 0.9 | 3.5 | 0.00 | 0.01 | 0.01 | 72 | 1010.4 |
| 20260509141647 | 70 | 221 | 1.7 | 2.6 | 0.00 | 0.01 | 0.01 | 72 | 1010.4 |
| 20260509141144 | 69 | 274 | 2.6 | 3.5 | 0.00 | 0.01 | 0.01 | 74 | 1010.4 |
| 20260509140641 | 68 | 194 | 0.9 | 2.6 | 0.00 | 0.01 | 0.01 | 76 | 1010.4 |
| 20260509140139 | 68 | 286 | 0.9 | 2.6 | 0.00 | 0.01 | 0.01 | 79 | 1010.4 |
| 20260509135636 | 67 | 190 | 0.9 | 1.7 | 0.00 | 0.01 | 0.01 | 80 | 1010.4 |
| 20260509135134 | 67 | 316 | 1.7 | 2.6 | 0.00 | 0.01 | 0.01 | 81 | 1010.1 |
| 20260509134630 | 66 | 170 | 0.9 | 2.6 | 0.00 | 0.01 | 0.01 | 83 | 1010.4 |
| 20260509134128 | 66 | 166 | 0.9 | 1.7 | 0.00 | 0.01 | 0.01 | 84 | 1010.3 |
| 20260509133625 | 65 | 153 | 1.7 | 1.7 | 0.00 | 0.01 | 0.01 | 87 | 1010.4 |
| 20260509133122 | 64 | 259 | 1.7 | 3.5 | 0.00 | 0.01 | 0.01 | 87 | 1010.3 |
| 20260509132620 | 64 | 162 | 2.6 | 3.5 | 0.00 | 0.01 | 0.01 | 88 | 1010.2 |
| 20260509132118 | 63 | 166 | 0.0 | 5.2 | 0.00 | 0.01 | 0.01 | 90 | 1010.4 |
| 20260509131614 | 63 | 184 | 0.9 | 1.7 | 0.00 | 0.01 | 0.01 | 91 | 1010.1 |
| 20260509131111 | 62 | 164 | 1.7 | 2.6 | 0.00 | 0.01 | 0.01 | 92 | 1010.1 |
| 20260509130607 | 62 | 162 | 0.9 | 3.5 | 0.00 | 0.01 | 0.01 | 92 | 1010.4 |
| 20260509130104 | 61 | 256 | 0.0 | 2.6 | 0.00 | 0.01 | 0.01 | 93 | 1010.2 |
| 20260509125600 | 61 | 186 | 1.7 | 2.6 | 0.00 | 0.01 | 0.01 | 94 | 1010.2 |
| 20260509125057 | 60 | 170 | 0.9 | 3.5 | 0.00 | 0.01 | 0.01 | 94 | 1010.2 |
| 20260509124553 | 59 | 143 | 0.9 | 2.6 | 0.00 | 0.01 | 0.01 | 96 | 1010.1 |
| 20260509124051 | 59 | 156 | 0.0 | 3.5 | 0.00 | 0.01 | 0.01 | 97 | 1010.0 |
| 20260509123548 | 58 | 155 | 1.7 | 2.6 | 0.00 | 0.01 | 0.01 | 98 | 1010.1 |
| 20260509123045 | 58 | 276 | 0.0 | 0.9 | 0.00 | 0.01 | 0.01 | 98 | 1010.1 |
| 20260509122541 | 57 | 105 | 0.9 | 1.7 | 0.00 | 0.01 | 0.01 | 99 | 1010.0 |
| 20260509122038 | 57 | 177 | 0.0 | 2.6 | 0.00 | 0.01 | 0.01 | 99 | 1010.1 |
| 20260509121534 | 56 | 161 | 0.9 | 1.7 | 0.00 | 0.01 | 0.01 | 99 | 1010.1 |
| 20260509121032 | 56 | 235 | 0.9 | 1.7 | 0.00 | 0.01 | 0.01 | 99 | 1010.0 |
| 20260509120530 | 55 | 196 | 0.9 | 1.7 | 0.05 | 0.01 | 0.01 | 99 | 1010.0 |